Quick links : Home Page : Contact Us : Index : Site Map : Search Site : Ephemerides


2000 CF105

Orbital Elements

The following orbital elements are taken from MPO 47853
2000 CF105
Epoch 2008 Nov. 30.0 TT = JDT 2454800.5                 MPC
M  21.65076              (2000.0)            P               Q
n   0.00341343     Peri.   52.96795     -0.33353248     -0.94270740
a  43.6859461      Node    56.51709     +0.86199877     -0.30825231
e   0.0331131      Incl.    0.52701     +0.38172529     -0.12760595
P 289              H    6.9           G   0.15           U   5
From 23 observations at 4 oppositions, 2000-2003, mean residual 0".43.
An explanation of the orbital elements is available.

These orbital elements are also available in forms suitable for loading into a number of popular planetarium-type software programs.


Ephemeris

The following ephemeris is at intervals of five days. A daily ephemeris covering the same time interval is also available.

Personalized ephemerides for this (and other) objects may be generated using the Minor Planet & Comet Ephemeris Service.

Date    TT    R. A. (2000) Decl.     Delta      r     Elong.  Phase     V
2008 11 10    09 05.90   +17 09.6   42.267   42.348    94.0     1.3    23.3
2008 11 15    09 05.91   +17 09.6   42.182   42.348    99.0     1.3    23.3
2008 11 20    09 05.89   +17 09.8   42.097   42.348   104.1     1.3    23.3
2008 11 25    09 05.82   +17 10.1   42.014   42.348   109.1     1.3    23.3
2008 11 30    09 05.72   +17 10.6   41.934   42.348   114.2     1.2    23.3
2008 12 05    09 05.57   +17 11.3   41.857   42.348   119.3     1.2    23.3
2008 12 10    09 05.39   +17 12.2   41.784   42.349   124.4     1.1    23.3
2008 12 15    09 05.17   +17 13.1   41.715   42.349   129.6     1.0    23.3
2008 12 20    09 04.92   +17 14.3   41.651   42.349   134.7     0.9    23.3
2008 12 25    09 04.64   +17 15.5   41.592   42.349   139.9     0.9    23.3
2008 12 30    09 04.33   +17 16.9   41.539   42.349   145.1     0.8    23.3
2009 01 04    09 04.00   +17 18.4   41.493   42.349   150.3     0.7    23.2
2009 01 09    09 03.64   +17 19.9   41.453   42.350   155.4     0.6    23.2
2009 01 14    09 03.27   +17 21.5   41.421   42.350   160.6     0.4    23.2
2009 01 19    09 02.88   +17 23.2   41.395   42.350   165.8     0.3    23.2
2009 01 24    09 02.48   +17 24.9   41.378   42.350   171.0     0.2    23.2
2009 01 29    09 02.07   +17 26.7   41.368   42.350   176.2     0.1    23.2
2009 02 03    09 01.66   +17 28.4   41.365   42.350   178.5     0.0    23.1
2009 02 08    09 01.25   +17 30.2   41.371   42.351   173.4     0.2    23.2
2009 02 13    09 00.84   +17 31.9   41.384   42.351   168.3     0.3    23.2
2009 02 18    09 00.45   +17 33.5   41.404   42.351   163.1     0.4    23.2
2009 02 23    09 00.06   +17 35.1   41.432   42.351   158.0     0.5    23.2
2009 02 28    08 59.69   +17 36.6   41.467   42.351   152.9     0.6    23.2
2009 03 05    08 59.34   +17 38.1   41.509   42.352   147.8     0.7    23.2
2009 03 10    08 59.02   +17 39.4   41.557   42.352   142.7     0.8    23.3
2009 03 15    08 58.72   +17 40.6   41.612   42.352   137.7     0.9    23.3
2009 03 20    08 58.45   +17 41.7   41.672   42.352   132.6     1.0    23.3
2009 03 25    08 58.21   +17 42.6   41.737   42.352   127.6     1.1    23.3
2009 03 30    08 58.00   +17 43.4   41.806   42.352   122.6     1.1    23.3
2009 04 04    08 57.83   +17 44.1   41.880   42.353   117.6     1.2    23.3
2009 04 09    08 57.69   +17 44.6   41.957   42.353   112.7     1.3    23.3
2009 04 14    08 57.59   +17 44.9   42.037   42.353   107.7     1.3    23.3
2009 04 19    08 57.54   +17 45.1   42.119   42.353   102.8     1.3    23.3
2009 04 24    08 57.52   +17 45.1   42.203   42.353    97.9     1.3    23.3
2009 04 29    08 57.54   +17 45.0   42.287   42.353    93.1     1.4    23.4
2009 05 04    08 57.60   +17 44.7   42.373   42.354    88.2     1.4    23.4
2009 05 09    08 57.70   +17 44.2   42.457   42.354    83.4     1.4    23.4
2009 05 14    08 57.83   +17 43.6   42.542   42.354    78.6     1.3    23.4
2009 05 19    08 58.01   +17 42.8   42.624   42.354    73.9     1.3    23.4
2009 05 24    08 58.22   +17 41.9   42.705   42.354    69.1     1.3    23.4
2009 05 29    08 58.47   +17 40.8   42.783   42.355    64.4     1.2    23.4
2009 06 03    08 58.75   +17 39.5   42.858   42.355    59.6     1.2    23.4
2009 06 08    08 59.07   +17 38.2   42.930   42.355    54.9     1.1    23.4
2009 06 13    08 59.41   +17 36.7   42.997   42.355    50.2     1.1    23.4
2009 06 18    08 59.79   +17 35.1   43.060   42.355    45.6     1.0    23.4
2009 06 23    09 00.19   +17 33.4   43.119   42.355    40.9     0.9    23.4
2009 06 28    09 00.61   +17 31.6   43.172   42.356    36.2     0.8    23.3
 
2009 09 16    09 08.44   +16 58.0   43.139   42.359    38.6     0.8    23.3
2009 09 21    09 08.85   +16 56.3   43.082   42.359    43.4     0.9    23.4
2009 09 26    09 09.24   +16 54.6   43.020   42.359    48.2     1.0    23.4
2009 10 01    09 09.60   +16 53.1   42.954   42.359    53.0     1.1    23.4
2009 10 06    09 09.92   +16 51.7   42.883   42.359    57.9     1.1    23.4
2009 10 11    09 10.22   +16 50.5   42.808   42.360    62.7     1.2    23.4
2009 10 16    09 10.48   +16 49.4   42.729   42.360    67.6     1.2    23.4
2009 10 21    09 10.70   +16 48.5   42.648   42.360    72.5     1.3    23.4
2009 10 26    09 10.89   +16 47.7   42.565   42.360    77.5     1.3    23.4
2009 10 31    09 11.03   +16 47.1   42.480   42.360    82.4     1.3    23.4
2009 11 05    09 11.14   +16 46.7   42.394   42.361    87.4     1.3    23.4
2009 11 10    09 11.21   +16 46.5   42.308   42.361    92.4     1.3    23.4
2009 11 15    09 11.24   +16 46.5   42.222   42.361    97.4     1.3    23.3
2009 11 20    09 11.22   +16 46.6   42.137   42.361   102.5     1.3    23.3
2009 11 25    09 11.17   +16 46.9   42.053   42.361   107.5     1.3    23.3
2009 11 30    09 11.08   +16 47.4   41.972   42.362   112.6     1.2    23.3
2009 12 05    09 10.94   +16 48.0   41.894   42.362   117.7     1.2    23.3
2009 12 10    09 10.78   +16 48.8   41.820   42.362   122.8     1.1    23.3
2009 12 15    09 10.57   +16 49.8   41.749   42.362   128.0     1.0    23.3

Back to Observable Distant Minor Planets

MPC

Valid HTML 4.01!